Location: Astenbeck
(52.1052°N, 10.1246°E)
Time: 21:12:40
(UTC+00:00)

Daily predictions for brighter satellites

Satellite Brightness Start Highest point End
(mag) Time Altitude Azimuth Time Altitude Azimuth Time Altitude Azimuth
ATLAS 2AS CENTAUR R/B 3.4 16:48:57 10° WSW 16:55:41 50° NNW 17:02:18 10° NE
Cosmos 2016 Rocket 4.0 16:51:17 10° N 16:57:32 73° ENE 17:03:49 10° SSE
SPOT 1/Viking Rocket 3.5 16:54:45 10° SSE 16:59:49 69° ENE 17:04:56 10° N
Cosmos 1980 4.0 16:55:39 10° NNW 17:01:08 47° NE 17:06:33 10° SE
COSMOS 2428 2.8 16:56:20 10° NNW 17:02:07 85° ENE 17:07:51 10° SSE
Cosmos 2242 Rocket 3.5 16:58:06 10° S 17:02:28 75° E 17:06:51 10° NNE
Cosmos 1802 Rocket 4.2 16:59:48 10° N 17:06:14 87° W 17:12:41 10° S
Cosmos 1674 Rocket 3.9 17:02:17 10° SSE 17:06:26 43° E 17:10:38 10° NNE
SMAP 4.2 17:01:57 10° S 17:06:28 50° W 17:11:02 10° NNW
Cosmos 2237 Rocket 2.5 17:01:01 10° NNW 17:06:32 48° NE 17:12:01 10° SE
Lacrosse 5 rocket 0.9 17:04:13 10° WSW 17:07:41 89° SSE 17:11:18 10° ENE
Cosmos 2285 Rocket 4.2 17:01:46 10° NNW 17:08:08 56° ENE 17:14:24 10° SE
IRS-P3 4.1 17:03:00 10° SSE 17:08:19 79° ENE 17:13:40 10° NNW
Cosmos 2233 Rocket 4.0 17:06:10 10° N 17:12:27 71° ENE 17:18:44 10° SSE
Cosmos 2219 Rocket 4.2 17:07:51 10° NW 17:12:50 33° WSW 17:17:46 10° S
SJ-6B 4.0 17:14:56 10° ESE 17:17:20 18° ENE 17:19:44 10° NNE
Cosmos 1441 Rocket 4.5 17:14:26 10° SW 17:17:34 37° WNW 17:20:42 10° N
CARTOSAT-1 4.0 17:15:32 10° SE 17:19:26 39° ENE 17:23:22 10° N
Cosmos 1867 3.6 17:14:06 10° SW 17:19:33 88° SE 17:25:03 10° NE
USA 267 3.3 17:13:04 10° ENE 17:19:40 83° SSE 17:26:14 10° WSW
Cosmos 1725 Rocket 4.3 17:13:40 10° NNW 17:19:55 77° W 17:26:10 10° S
Aureole 3 Rocket 3.1 17:17:24 10° N 17:21:26 39° ENE 17:24:37 10° SE
NOSS 0 Rocket 4.0 17:16:50 10° NNW 17:23:08 88° SW 17:29:23 10° SSE
Cosmos 2322 4.3 17:18:52 10° NW 17:24:31 63° WSW 17:30:09 10° SSE
SJ-7 4.4 17:21:13 10° SE 17:24:45 47° ENE 17:28:18 10° N
UNK 4.3 17:21:16 10° N 17:25:47 61° WNW 17:30:17 10° SSW
Cosmos 2151 Rocket 3.8 17:25:46 10° NNW 17:30:17 80° W 17:34:47 10° S
SL-16 R/B 3.1 17:26:24 10° NNW 17:31:17 29° NE 17:35:24 13° E
Meteor 1-31 Rocket 4.2 17:32:45 15° ENE 17:32:57 15° ENE 17:34:56 10° NNE
Cosmos 1814 Rocket 4.1 17:28:11 10° SSW 17:33:29 86° WNW 17:38:45 10° NNE
Cosmos 2227 Rocket 3.5 17:30:47 10° SE 17:34:27 18° E 17:36:55 14° ENE
SAR-Lupe-1 4.4 17:32:23 10° S 17:35:56 68° WSW 17:39:30 10° NNW
Cosmos 1315 Rocket 3.8 17:33:48 10° NNW 17:37:29 49° W 17:41:09 10° S
Cosmos 2061 Rocket 4.1 17:31:16 10° N 17:37:42 89° ENE 17:44:01 10° S
ATLAS 5 CENTAUR R/B 4.2 17:34:14 10° WNW 17:37:47 24° WSW 17:41:56 10° S
Cosmos 1125 Rocket 3.5 17:32:36 10° NNW 17:37:49 89° WSW 17:43:01 10° SSE
SL-19 R/B 4.4 17:32:21 10° SSE 17:38:25 65° ENE 17:44:14 10° NNW
Cosmos 1607 3.9 17:32:44 10° SW 17:38:52 81° SE 17:45:06 10° NE
SL-16 R/B 4.0 17:35:29 10° N 17:41:05 37° WNW 17:46:42 10° WSW
Cosmos 1455 Rocket 3.2 17:38:04 10° N 17:42:15 49° ENE 17:46:25 10° SSE
ARIANE 6 FM1 Upper Stage 3.6 17:39:10 10° NW 17:42:41 29° NNE 17:44:44 19° ENE
CZ-4C R/B 1.8 17:40:22 10° SW 17:44:41 77° SE 17:50:06 11° NE
NOSS 3-3 (C) 3.8 17:40:04 10° SSW 17:45:15 61° SE 17:51:19 11° NE
DNEPR-1 R/B 4.1 17:40:41 10° NW 17:45:15 52° NE 17:49:52 14° ESE
USA 306 4.2 17:43:36 10° W 17:45:20 15° SW 17:46:45 10° S
BREEZE-M DEB (TANK) 3.9 17:41:12 10° W 17:45:21 51° SSW 17:52:06 10° SE
Cosmos 1975 Rocket 4.1 17:42:14 10° SE 17:45:43 24° E 17:49:11 10° NE
YAOGAN 1 2.7 17:42:52 10° S 17:47:07 75° WSW 17:51:24 10° NNW
Cosmos 158 Rocket 4.1 17:43:29 10° SSW 17:48:19 70° WNW 17:53:12 10° NNE
YAOGAN 3 4.5 17:44:29 10° SSE 17:48:37 61° ENE 17:52:47 10° N
SeaSat 1 3.8 17:44:23 10° S 17:49:00 41° WSW 17:53:40 10° NW
Cosmos 1464 Rocket 4.3 17:44:44 10° N 17:50:51 46° ENE 17:56:54 10° SE
NOAA 6 4.0 17:49:51 10° SSE 17:54:59 83° ENE 18:00:11 10° NNW
COSMO-SKYMED 1 2.3 17:51:13 10° NNE 17:55:20 69° ESE 17:59:26 10° S
Spot 4 Rocket 4.1 17:50:28 10° SSE 17:55:35 82° WSW 18:00:44 10° NNW
Cosmos 2228 3.4 17:51:54 10° N 17:55:50 39° ENE 17:59:47 10° SE
Okean 1 Rocket 3.5 17:52:09 10° NNW 17:56:32 66° W 18:00:51 10° S
CZ-4 R/B 2.7 17:58:02 19° NE 17:58:02 19° NE 18:00:05 10° NNE
PSLV R/B 3.4 17:53:34 10° SSE 17:57:41 89° WSW 18:01:49 10° NNW
Okean 2 Rocket 3.9 17:54:32 10° NNW 17:58:51 54° W 18:03:05 10° S
CZ-4B R/B 4.3 17:58:27 20° ENE 17:59:34 22° NE 18:03:32 10° N
Cosmos 2221 Rocket 3.6 17:56:08 10° S 18:00:37 89° E 18:05:09 10° N
SPOT 5 3.6 18:00:21 19° ESE 18:03:11 34° ENE 18:07:45 10° N
Cosmos 773 Rocket 4.4 17:59:14 10° S 18:04:07 40° ESE 18:08:54 11° NE
BREEZE-M (TANK) 3.7 18:04:46 10° W 18:07:16 35° SSW 18:12:02 13° SE
Radarsat Rocket 4.3 18:02:53 10° S 18:08:44 69° WSW 18:15:05 10° NNW
CZ-2D R/B 4.4 18:07:12 10° S 18:10:59 47° W 18:14:53 10° NNW
RESURS DK-1 4.2 18:09:10 10° N 18:11:22 15° NNE 18:11:22 15° NNE
NOSS 3-3 (A) 3.8 18:07:32 10° SW 18:12:51 86° NW 18:18:19 15° NE
CSL-04 Rocket 3.9 18:11:32 17° SE 18:15:20 45° ENE 18:20:20 10° N
ATLAS CENTAUR R/B 3.2 18:15:47 10° N 18:15:56 10° N 18:15:56 10° N
IRAS Rocket 4.2 18:11:39 10° SSE 18:17:16 84° ENE 18:22:56 10° NNW
Cosmos 2297 Rocket 2.1 18:12:53 10° SSW 18:18:32 75° ESE 18:24:13 10° NNE
Cosmos 1943 4.2 18:15:35 10° NNW 18:20:26 28° NE 18:21:39 26° ENE
Cosmos 1025 Rocket 4.1 18:16:39 10° SSW 18:20:48 47° WNW 18:25:02 10° N
Cosmos 836 Rocket 4.4 18:16:17 10° S 18:21:30 65° ESE 18:26:45 10° NNE
Orbus 7S? 4.4 18:13:02 10° WNW 18:22:19 77° SW 18:24:45 27° SE
Cosmos 2150 Rocket 3.8 18:17:16 10° NNW 18:22:28 82° ENE 18:27:13 12° SSE
Resurs 01 Rocket 1.9 18:18:52 10° S 18:23:15 70° WSW 18:27:40 10° NNW
Cosmos 2298 Rocket 3.9 18:19:30 10° NNW 18:24:50 81° ENE 18:29:31 13° SSE
NOSS 3-4 (A) 4.0 18:23:39 10° NW 18:30:15 74° SW 18:37:51 11° SSE
NOSS 3-4 (C) 4.0 18:23:55 10° NW 18:30:32 74° SW 18:38:02 11° SSE
Cosmos 2344 4.0 18:24:11 10° S 18:31:05 35° ESE 18:32:55 31° E
Cosmos 1782 2.4 18:28:01 10° N 18:31:36 65° ENE 18:31:36 65° ENE
BREEZE-M DEB (TANK) 4.5 18:10:53 10° WSW 18:33:28 57° S 18:36:50 31° ESE
CRYOSAT 2 4.4 18:30:00 10° N 18:34:54 79° W 18:39:47 10° SSW
CZ-4B R/B 3.6 18:43:53 61° SSE 18:44:33 82° ENE 18:48:28 10° NNW
Lacrosse 5 rocket 1.9 18:41:27 10° W 18:44:48 39° N 18:44:56 38° N
PAYLOAD B 4.3 18:45:54 43° ESE 18:47:17 55° ENE 18:52:46 10° N
ATLAS 2AS CENTAUR R/B 3.9 18:42:01 10° WNW 18:48:03 31° N 18:51:31 21° NE
Cosmos 2263 Rocket 3.2 18:43:30 10° S 18:46:41 29° SSE 18:46:41 29° SSE
Terra 3.0 18:51:38 28° NNE 18:51:38 28° NNE 18:54:25 10° N
SJ-6B 3.6 18:47:08 10° S 18:50:26 43° W 18:53:45 10° NNW
Cosmos 2237 Rocket 3.5 18:45:17 10° NW 18:50:30 39° WSW 18:55:43 10° S
TSX-5 4.2 18:47:55 10° NNW 18:53:21 65° NE 18:53:39 63° ENE
Okean O Rocket 3.7 19:01:58 15° NNE 19:01:58 15° NNE 19:02:55 10° N
Cosmos 44 Rocket 3.2 18:56:51 10° SW 19:01:48 80° SE 19:02:16 72° ENE
USA 267 3.5 18:59:48 35° NE 19:02:34 62° N 19:09:00 10° W
ERS-1 Rocket 3.4 19:04:25 46° NNE 19:04:25 46° NNE 19:08:21 10° N
Meteor 1-31 Rocket 3.8 19:06:45 37° NW 19:06:45 37° NW 19:09:04 10° NNW
Cosmos 1816 Rocket 4.4 18:59:50 10° S 19:05:59 89° W 19:12:17 10° N
Cosmos 2034 Rocket 3.9 19:01:52 10° NNW 19:08:03 84° W 19:13:44 13° S
ADEOS 3.5 19:12:55 66° NE 19:12:55 66° NE 19:17:41 10° NNW
Cosmos 1544 Rocket 3.8 19:10:21 10° NNW 19:14:21 67° WNW 19:14:21 67° WNW
SL-16 R/B 2.3 19:10:18 10° NNW 19:15:58 75° WSW 19:17:18 53° S
Cosmos 1634 Rocket 3.9 19:10:06 10° N 19:16:27 69° ENE 19:17:03 65° ESE
Cosmos 2227 Rocket 2.1 19:12:03 10° SSW 19:17:42 89° ESE 19:18:49 60° NNE
ARIANE 6 FM1 Upper Stage 3.7 19:18:05 10° NW 19:20:45 41° WNW 19:20:45 41° WNW
Cosmos 1975 Rocket 4.1 19:19:03 10° SW 19:23:12 43° WNW 19:27:21 10° N
Gblst 52 Del rocket 4.4 19:23:14 10° W 19:30:36 84° S 19:31:10 76° SE
CZ-4 R/B 3.3 19:33:01 24° NW 19:33:01 24° NW 19:34:45 10° NNW
CZ-4C R/B 3.3 19:28:59 10° W 19:33:29 36° NNW 19:35:03 30° NNE
MetOp-B 4.4 19:39:24 65° NNW 19:39:24 65° NNW 19:43:59 10° NNW
CZ-4B R/B 3.3 19:40:18 67° NW 19:40:18 67° NW 19:44:56 10° NNW
Cosmos 2279 Rocket 4.2 19:34:10 10° N 19:39:08 56° NNE 19:39:08 56° NNE
SPOT 5 4.0 19:39:23 32° SW 19:41:01 42° W 19:45:50 10° NNW
MOS 1 4.4 19:43:59 72° WSW 19:44:00 72° WSW 19:49:43 10° NNW
Cosmos 2297 Rocket 3.9 19:58:14 10° W 20:03:08 29° NW 20:06:06 19° N
Cosmos 1943 4.0 19:59:22 10° NNW 20:03:25 48° NW 20:03:25 48° NW
Terra 4.1 20:30:15 20° NW 20:30:15 20° NW 20:31:59 10° NNW
Cosmos 2263 Rocket 4.3 20:26:58 10° SW 20:28:28 18° WSW 20:28:28 18° WSW
ATLAS 2AS CENTAUR R/B 3.8 20:34:14 10° NW 20:38:56 35° N 20:38:56 35° N
Cosmos 2344 4.0 20:37:29 10° WSW 20:43:00 49° W 20:43:00 49° W
USA 267 4.1 20:47:08 46° NW 20:47:08 46° NW 20:51:43 10° WNW
Cosmos 2227 Rocket 4.3 20:57:52 10° W 21:00:43 22° WNW 21:00:43 22° WNW
